Location: ?ernice
(48.8383°N, 14.3803°E)
Time: 21:37:14
(UTC+00:00)

COSMOS 2441 - Pass Details

Date: 23 May 2024
Orbit: 705 x 730 km, 98.2° (Epoch: 22 June)

Event Time Altitude Azimuth Distance (km) Brightness Sun altitude
Rises 01:28:15 0° 13° (NNE) 3,118 9.0 -13.0°
Reaches altitude 10° 01:30:32 10° 13° (NNE) 2,192 8.0 -12.8°
Maximum altitude 01:35:20 85° 285° (WNW) 716 4.3 -12.3°
Enters shadow 01:39:18 15° 198° (SSW) 1,852 5.9 -11.9°
